Tracking 18984 objects as of 24-Feb-2018
HD Live streaming from Space Station
objects crossing your sky now

COSMOS 87

Track COSMOS 87 now!
10-day predictions
COSMOS 87 is classified as:


NORAD ID: 1585
Int'l Code: 1965-073B
Perigee: 1,325.8 km
Apogee: 1,639.1 km
Inclination: 56.1 °
Period: 115.4 minutes
Semi major axis: 7853 km
RCS: 0.3642 m2 (medium)
Launch date: September 18, 1965
Source: Commonwealth of Independent States (former USSR) (CIS)
Launch site: TYURATAM MISSILE AND SPACE COMPLEX (TTMTR)
aabbcc
Your satellite tracking list
Your tracking list is empty




NASA's NSSDC Master Catalog

Two Line Element Set (TLE):
1  1585U 65073B   18054.46816649 -.00000079 +00000-0 +96357-4 0  9993
2  1585 056.0620 162.3358 0199447 273.1961 158.0466 12.47422239387566
Source of the keplerian elements: AFSPC